Regional Weather Roundup
Issued by NWS Cleveland, OH

Home | Current Version | Previous Version | Graphics & Text | Print | Product List | Glossary On
Versions: 1 2 3 4 5 6 7 8 9 10 11 12 13 14 15 16 17 18 19 20 21 22 23 24 25 26 27 28 29 30 31 32 33 34 35 36 37 38 39 40 41 42 43 44 45 46 47 48 49 50
000
ASUS41 KCLE 161710
RWRCLE
OHIO REGIONAL WEATHER ROUNDUP
NATIONAL WEATHER SERVICE WILMINGTON, OH
1200 PM EST MON JAN 16 2017

NOTE: "FAIR" INDICATES FEW OR NO CLOUDS BELOW 12,000 FEET WITH NO
SIGNIFICANT WEATHER AND/OR OBSTRUCTIONS TO VISIBILITY.

OHZ001>008-015>018-024>027-034-035-043-044-161800-
   NORTHWEST OHIO

CITY           SKY/WX    TMP DP  RH WIND       PRES   REMARKS
DEFIANCE       CLOUDY    34  30  85 NE5       30.30F FOG     WCI  30
FINDLAY        RAIN      36  31  82 E6        30.27F
TOLEDO EXPRESS LGT RAIN  33  30  88 E3        30.30F FOG
TOLEDO EXEC    CLOUDY    35  29  78 NE3       30.32F HAZE
LIMA           LGT RAIN  37  36  96 CALM      30.27F FOG
$$

OHZ009>014-019>023-028>033-038-089-161800-
   NORTHEAST OHIO

CITY           SKY/WX    TMP DP  RH WIND       PRES   REMARKS
CLE-HOPKINS    CLOUDY    37  26  64 SE5       30.33F
CLE-LAKEFRONT  CLOUDY    36  25  64 CALM      30.31F
CUY CO. ARPT   CLOUDY    37  25  60 CALM      30.31F
LORAIN-ELYRIA  CLOUDY    33  27  78 SE5       30.31F WCI  29
ASHTABULA      CLOUDY    32  26  78 SE3       30.33F
AKRON-CANTON   CLOUDY    36  26  67 SE5       30.29F
WOOSTER        CLOUDY    34  28  79 SE6       30.30F WCI  29
MANSFIELD      CLOUDY    38  32  79 SE9       30.27F
YOUNGSTOWN     CLOUDY    35  17  47 SE6       30.31F
$$

OHZ042-051>053-060>062-070>072-077>081-161800-
  SOUTHWEST OHIO

CITY           SKY/WX    TMP DP  RH WIND       PRES   REMARKS
CINC-COVINGTON CLOUDY    44  43  96 SE3       30.25F FOG
CINC-LUNKEN    LGT RAIN  44  42  93 CALM      30.28F FOG
HAMILTON       CLOUDY    45  42  89 S3        30.28F
DAYTON         CLOUDY    42  40  92 SE7       30.26F FOG
WRIGHT-PAT AFB CLOUDY    44  43  95 SE7       30.26F FOG
DAYTON GENERAL CLOUDY    43  41  93 SE8       30.25F
WILMINGTON     CLOUDY    43  42  97 SE6       30.26F
$$

OHZ036-037-039>041-045>050-054>059-063>069-073>076-082>088-161800-
  CENTRAL AND SOUTHEAST OHIO

CITY           SKY/WX    TMP DP  RH WIND       PRES   REMARKS
COLUMBUS       CLOUDY    42  37  82 S6        30.28F
OSU AIRPORT    CLOUDY    43  38  82 SE8       30.27F
BOLTON FIELD   NOT AVBL
RICKENBACK AFB   N/A     41  39  91 SE5       30.28F
NEWARK         LGT RAIN  38  33  82 CALM      30.28F
MARION         LGT RAIN  37  33  85 SE8       30.27F FOG
LANCASTER      CLOUDY    43  37  79 SE6       30.29F
ZANESVILLE     CLOUDY    39  33  79 SE3       30.29F
NEW PHILLY     CLOUDY    36  28  73 CALM      30.31F
$$



USA.gov is the U.S. government's official web portal to all federal, state and local government web resources and services.